Weather Roundup
Issued by NWS

Home | Current Version | Previous Version | Graphics & Text | Print | Product List | Glossary Off
Versions: 1 2 3 4 5 6 7 8 9 10 11 12 13 14 15 16 17 18 19 20 21 22 23 24 25 26 27 28 29 30 31 32 33 34 35 36 37 38 39 40 41 42 43 44 45 46 47 48 49 50

838
NZUS93 KARX 182359
HRRWXR

CURRENT HOURLY OBSERVATIONS ACROSS
MUCH OF THE UPPER MISSISSIPPI VALLEY
NATIONAL WEATHER SERVICE LA CROSSE WI
700 PM CDT WED APR 18 2018


...SOUTHEAST MINNESOTA...


CITY           SKY/WX    TMP DP  RH WIND       PRES   REMARKS
ROCHESTER      LGT SNOW  31  30  96 NW12      30.02R FOG     WCI  22
ROCHESTER/MAYO CLOUDY    32  32 100 NW5       30.04R WCI  27
WINONA         LGT SNOW  34  34 100 NW6       30.02R WCI  29
AUSTIN         LGT SNOW  30  28  93 NW8       30.04R WCI  23
ALBERT LEA     LGT SNOW  30  30 100 NW6       30.05R WCI  24
DODGE CENTER   LGT SNOW  30  30 100 NW9       30.04R WCI  22
PRESTON        LGT SNOW  31  28  91 N9        30.02R WCI  23
OWATONNA       LGT SNOW  32  30  93 NW8       30.06R WCI  25
FARIBAULT      NOT AVBL
$$

...ELSEWHERE IN MINNESOTA...


CITY           SKY/WX    TMP DP  RH WIND       PRES   REMARKS
MINNEAPOLIS    CLOUDY    39  29  67 N7        30.07R WCI  34
INTNL FALLS    FAIR      46  11  24 NE5       30.17S
DULUTH         FAIR      38  12  34 E16       30.13R WCI  29
RED WING       FAIR      39  25  56 N3        30.04R
REDWOOD FALLS  CLOUDY    37  29  72 NW7       30.10R WCI  32
MANKATO        FLURRIES  33  31  92 NW5       30.09R WCI  29
WORTHINGTON    LGT SNOW  32  29  88 NW13      30.12R FOG     WCI  22
FAIRMONT       LGT SNOW  32  30  92 NW13      30.10R FOG     WCI  22
$$

...SOUTHWEST WISCONSIN...


CITY           SKY/WX    TMP DP  RH WIND       PRES   REMARKS
LA CROSSE      SNOW      33  32  96 NW9       30.01R VSB 1/2 WCI  25
PRAIRIE DU CHI LGT SNOW  32  30  92 NW7       30.00R WCI  26
BOSCOBEL       LGT SNOW  33  29  85 N5        30.00R FOG     WCI  29
LONE ROCK      LGT SNOW  32  31  96 NW7       29.97R VSB 1   WCI  26
PLATTEVILLE    CLOUDY    32  31  99 N9        29.95R WCI  24
FORT MC COY    SNOW      31  31  99 CALM      29.99R VSB 1/2
MAUSTON-NEW LI SNOW      32  31  97 W5        29.95S VSB 1/2 WCI  27
VIROQUA        CLOUDY    31  31 100 NW5       29.97R VSB 3/4 WCI  26
WIS DELLS      SNOW      31  30  96 NW3       29.94R VSB 1/2
$$

...ELSEWHERE IN WISCONSIN...


CITY           SKY/WX    TMP DP  RH WIND       PRES   REMARKS
MILWAUKEE      SNOW      33  32  96 NE13G25   29.88R VSB 1/2 WCI  24
MADISON        SNOW      31  30  96 NW9       29.93R VSB 1/4 WCI  23
GREEN BAY      CLOUDY    36  28  73 NE14G24   29.96R WCI  27
EAU CLAIRE     NOT AVBL
BLACK RVR FLS  LGT SNOW  33  33 100 CALM      29.98S VSB 1
MEDFORD        FAIR      40  25  56 NE10      29.94R WCI  33
WAUSAU         MOCLDY    41  25  53 NE6       29.93R
WIS RAPIDS     FAIR      33  28  81 CALM      29.95R
MARSHFIELD     FAIR      35  27  72 NW9       29.94R WCI  28
RICE LAKE      FAIR      37  25  60 N20       30.05R WCI  27
$$

...NORTHEAST IOWA...


CITY           SKY/WX    TMP DP  RH WIND       PRES   REMARKS
WATERLOO       LGT SNOW  31  30  96 NW14      30.03R FOG     WCI  21
DUBUQUE        SNOW      30  28  92 N10       29.96R VSB 1/2 WCI  21
DECORAH        LGT SNOW  32  32 100 NW8       29.99R WCI  25
MASON CITY     CLOUDY    31  28  89 NW10      30.06R FOG     WCI  22
CHARLES CITY   LGT SNOW  32  32 100 NW12      30.04R WCI  23
OELWEIN        FLURRIES  30  30 100 N13       30.01R WCI  20
$$

...ELSEWHERE IN IOWA...


CITY           SKY/WX    TMP DP  RH WIND       PRES   REMARKS
DES MOINES     CLOUDY    36  27  69 NW18G24   30.07R WCI  26
IOWA CITY      LGT SNOW  34  30  85 NW13      30.02R FOG     WCI  25
FORT DODGE     CLOUDY    34  28  79 NW8G17    30.09R WCI  27
MARSHALLTOWN   CLOUDY    32  30  92 NW12      30.04R WCI  23
CEDAR RAPIDS   LGT SNOW  33  31  92 NW16      30.00R FOG     WCI  23
$$

...NORTHERN ILLINOIS...


CITY           SKY/WX    TMP DP  RH WIND       PRES   REMARKS
CHICAGO-OHARE  DRIZZLE   33  32  96 N9        29.84R FOG     WCI  25
CHICAGO-MIDWAY DRIZZLE   35  33  92 N8        29.85R FOG     WCI  29
MOLINE         CLOUDY    34  31  88 NW13      29.96R FOG     WCI  25
ROCKFORD       LGT SNOW  32  30  92 N8        29.92R FOG     WCI  25
PEORIA         CLOUDY    37  31  78 NW13G25   29.92R WCI  29
$$

NOTE: "FAIR" INDICATES FEW OR NO CLOUDS BELOW 12,000 FEET WITH NO
SIGNIFICANT WEATHER AND/OR OBSTRUCTIONS TO VISIBILITY. WIND
SPEEDS ARE IN MILES-PER-HOUR.




USA.gov is the U.S. government's official web portal to all federal, state and local government web resources and services.